Flag for Spain Weather past 2 weeks in Mahón, Menorca, Spain

Now
62 °F

Fog.


Feels Like: 62 °F
Forecast: 58 / 65 °F
Wind: 14 mph from Southwest

Location: Menorca / Mahon

Current Time: Apr 26, 2015 at 9:33:54 PM

Latest Report: Apr 26, 2015 at 8:00 PM


Visibility: 3 mi

Pressure: 29.72 "Hg

Humidity: 91%

Dew point: 60 °F

Location of MahónLocation

Historic Weather in Mahón — Graph

°F

Mahón temperature yesterday

Maximum temperature yesterday: 69 °F (at 2:00 PM)
Minimum temperature yesterday: 59 °F (at 7:00 AM)
Average temperature yesterday: 63 °F

Past Weeks' High & Low Weather Summary

 TemperatureHumidityPressure
High74 °F (Apr 23, 4:00 PM)100% (Apr 14, 6:00 AM)30.43 "Hg (Apr 14, 6:00 AM)
Low46 °F (Apr 14, 4:00 AM)41% (Apr 21, 3:00 PM)29.71 "Hg (Apr 26, 7:00 PM)
Average61 °F82%30.11 "Hg
* Reported Apr 11 8:00 PM — Apr 26 8:00 PM, Mahón, Weather by CustomWeather, © 2015

Note: Actual official high and low records may vary slightly from our data, if they occured in-between our weather recording intervals... More about our weather records

Advertising

Mahón weather history for previous 24 hours

 ConditionsComfort  
Time TempWeatherWind HumidityBarometerVisibility
8:00 PM
Sun, Apr 26
62 °FFog.14 mph91%29.72 "Hg3 mi
7:00 PM64 °FMild.14 mph88%29.71 "HgN/A
6:00 PM66 °FMild.16 mph83%29.72 "HgN/A
5:00 PM67 °FLow clouds.16 mph80%29.73 "Hg8 mi
4:00 PM67 °FMild.16 mph79%29.75 "HgN/A
3:00 PM67 °FLow clouds.14 mph80%29.78 "Hg9 mi
2:00 PM65 °FLow clouds.16 mph82%29.80 "Hg7 mi
1:00 PM68 °FMild.13 mph77%29.82 "HgN/A
12:00 PM66 °FMild.12 mph82%29.83 "HgN/A
11:00 AM64 °FFog.10 mph87%29.85 "Hg4 mi
10:00 AM64 °FMild.8 mph85%29.85 "HgN/A
9:00 AM63 °FFog.8 mph89%29.85 "Hg4 mi
8:00 AM61 °FFog.5 mph92%29.85 "Hg4 mi
7:00 AM60 °FCool.9 mph94%29.86 "HgN/A
6:00 AM60 °FCool.9 mph94%29.85 "HgN/A
3:00 AM61 °FCool.9 mph91%29.90 "HgN/A
2:00 AM61 °FCool.7 mph90%29.92 "HgN/A
1:00 AM61 °FCool.12 mph88%29.95 "HgN/A
12:00 AM61 °FCool.10 mph91%29.95 "HgN/A
11:00 PM
Sat, Apr 25
61 °FLow clouds.9 mph91%29.95 "Hg7 mi
10:00 PM61 °FCool.8 mph91%29.97 "HgN/A
9:00 PM61 °FCool.9 mph89%29.93 "HgN/A
Weather by CustomWeather, © 2015

See weather overviewHow to use our weather pages